| time (UTC) | temp C | wind direction | speed KPH | gust KPH | rain 1hr cm | rain 24hr cm | rain mn cm | humidity % | barometer mb |
| 20260508004703 | 22 | 355 | 3.2 | 8.0 | 0.00 | 0.00 | 0.00 | 66 | 1013.5 |
| 20260508003204 | 22 | 358 | 3.2 | 14.5 | 0.00 | 0.00 | 0.00 | 64 | 1013.9 |
| 20260508003057 | 23 | 0 | 3.2 | 17.7 | 0.00 | 0.00 | 0.00 | 64 | 1014.0 |
| 20260508000204 | 23 | 347 | 1.6 | 20.9 | 0.00 | 0.00 | 0.00 | 63 | 1013.9 |
| 20260507234702 | 23 | 4 | 9.7 | 20.9 | 0.00 | 0.00 | 0.00 | 62 | 1014.1 |
| 20260507233911 | 24 | 0 | 4.8 | 17.7 | 0.00 | 0.00 | 0.00 | 64 | 1013.9 |
| 20260507231702 | 23 | 354 | 8.0 | 20.9 | 0.00 | 0.00 | 0.00 | 64 | 1013.8 |
| 20260507230204 | 23 | 338 | 6.4 | 20.9 | 0.00 | 0.00 | 0.00 | 64 | 1013.8 |
| 20260507224703 | 24 | 0 | 8.0 | 22.5 | 0.00 | 0.00 | 0.00 | 64 | 1013.5 |
| 20260507223900 | 24 | 42 | 4.8 | 14.5 | 0.00 | 0.00 | 0.00 | 64 | 1013.4 |
| 20260507221702 | 24 | 16 | 3.2 | 17.7 | 0.00 | 0.00 | 0.00 | 64 | 1013.5 |
| 20260507220206 | 24 | 8 | 11.3 | 20.9 | 0.00 | 0.00 | 0.00 | 62 | 1013.7 |
| 20260507215354 | 24 | 1 | 3.2 | 22.5 | 0.00 | 0.00 | 0.00 | 63 | 1013.8 |
| 20260507213203 | 24 | 353 | 3.2 | 17.7 | 0.00 | 0.00 | 0.00 | 64 | 1013.7 |
| 20260507211703 | 24 | 0 | 6.4 | 17.7 | 0.00 | 0.00 | 0.00 | 64 | 1013.8 |
| 20260507210203 | 25 | 13 | 4.8 | 22.5 | 0.00 | 0.00 | 0.00 | 62 | 1014.0 |
| 20260507204702 | 25 | 30 | 8.0 | 20.9 | 0.00 | 0.00 | 0.00 | 62 | 1014.0 |
| 20260507203204 | 25 | 302 | 6.4 | 22.5 | 0.00 | 0.00 | 0.00 | 63 | 1014.0 |
| 20260507201703 | 25 | 1 | 12.9 | 25.7 | 0.00 | 0.00 | 0.00 | 62 | 1014.4 |
| 20260507200204 | 24 | 3 | 9.7 | 22.5 | 0.00 | 0.00 | 0.00 | 65 | 1014.8 |
| 20260507195412 | 24 | 4 | 3.2 | 20.9 | 0.00 | 0.00 | 0.00 | 65 | 1014.6 |
| 20260507193203 | 24 | 86 | 6.4 | 20.9 | 0.00 | 0.00 | 0.00 | 67 | 1014.7 |
| 20260507191703 | 23 | 264 | 4.8 | 25.7 | 0.00 | 0.00 | 0.00 | 68 | 1015.2 |
| 20260507190904 | 23 | 358 | 8.0 | 22.5 | 0.00 | 0.00 | 0.00 | 67 | 1015.5 |
| 20260507184702 | 22 | 0 | 12.9 | 29.0 | 0.00 | 0.00 | 0.00 | 68 | 1015.6 |
| 20260507183204 | 22 | 289 | 8.0 | 25.7 | 0.00 | 0.00 | 0.00 | 69 | 1015.7 |
| 20260507181702 | 22 | 358 | 8.0 | 32.2 | 0.00 | 0.00 | 0.00 | 69 | 1015.9 |
| 20260507180203 | 21 | 0 | 4.8 | 22.5 | 0.00 | 0.00 | 0.00 | 72 | 1015.9 |
| 20260507175353 | 21 | 271 | 4.8 | 22.5 | 0.00 | 0.00 | 0.00 | 71 | 1016.5 |
| 20260507173203 | 21 | 329 | 8.0 | 17.7 | 0.00 | 0.00 | 0.00 | 70 | 1016.7 |
| 20260507171702 | 21 | 329 | 9.7 | 29.0 | 0.00 | 0.00 | 0.00 | 71 | 1016.5 |
| 20260507170204 | 21 | 0 | 8.0 | 20.9 | 0.00 | 0.00 | 0.00 | 72 | 1016.6 |
| 20260507165359 | 20 | 0 | 9.7 | 25.7 | 0.00 | 0.00 | 0.00 | 74 | 1016.7 |
| 20260507163204 | 20 | 0 | 9.7 | 25.7 | 0.00 | 0.00 | 0.00 | 73 | 1016.3 |
| 20260507161702 | 19 | 341 | 9.7 | 20.9 | 0.00 | 0.00 | 0.00 | 75 | 1016.2 |
| 20260507160203 | 18 | 11 | 8.0 | 29.0 | 0.00 | 0.00 | 0.00 | 75 | 1015.8 |
| 20260507155417 | 18 | 0 | 9.7 | 29.0 | 0.00 | 0.00 | 0.00 | 77 | 1016.3 |
| 20260507153205 | 18 | 0 | 9.7 | 25.7 | 0.00 | 0.00 | 0.00 | 77 | 1016.7 |
| 20260507151702 | 18 | 0 | 11.3 | 35.4 | 0.00 | 0.00 | 0.00 | 77 | 1016.5 |
| 20260507150855 | 17 | 355 | 12.9 | 32.2 | 0.00 | 0.00 | 0.00 | 78 | 1016.1 |
| 20260507144705 | 17 | 13 | 9.7 | 29.0 | 0.00 | 0.00 | 0.00 | 79 | 1016.0 |
| 20260507143203 | 17 | 0 | 11.3 | 38.6 | 0.00 | 0.00 | 0.00 | 79 | 1016.2 |
| 20260507141704 | 17 | 0 | 9.7 | 25.7 | 0.00 | 0.00 | 0.00 | 80 | 1016.2 |
| 20260507140204 | 17 | 0 | 11.3 | 22.5 | 0.00 | 0.00 | 0.00 | 80 | 1016.5 |
| 20260507134702 | 16 | 355 | 9.7 | 29.0 | 0.00 | 0.00 | 0.00 | 81 | 1016.4 |
| 20260507133204 | 16 | 347 | 9.7 | 22.5 | 0.00 | 0.00 | 0.00 | 82 | 1016.3 |
| 20260507131702 | 16 | 334 | 9.7 | 29.0 | 0.00 | 0.00 | 0.00 | 83 | 1016.5 |
| 20260507130203 | 16 | 353 | 16.1 | 22.5 | 0.00 | 0.00 | 0.00 | 83 | 1016.8 |
| 20260507124702 | 16 | 336 | 8.0 | 17.7 | 0.00 | 0.00 | 0.00 | 83 | 1016.4 |
| 20260507123204 | 17 | 0 | 6.4 | 25.7 | 0.00 | 0.00 | 0.00 | 83 | 1016.1 |
| 20260507123057 | 17 | 7 | 8.0 | 20.9 | 0.00 | 0.00 | 0.00 | 82 | 1015.2 |
| 20260507120203 | 17 | 0 | 11.3 | 25.7 | 0.00 | 0.00 | 0.00 | 82 | 1015.2 |
| 20260507114702 | 17 | 345 | 12.9 | 25.7 | 0.00 | 0.00 | 0.00 | 82 | 1015.1 |
| 20260507113203 | 17 | 0 | 9.7 | 22.5 | 0.00 | 0.00 | 0.00 | 81 | 1014.9 |
| 20260507111701 | 17 | 0 | 8.0 | 22.5 | 0.00 | 0.00 | 0.00 | 81 | 1014.7 |
| 20260507110202 | 17 | 0 | 9.7 | 29.0 | 0.00 | 0.00 | 0.00 | 81 | 1014.2 |
| 20260507104700 | 17 | 14 | 3.2 | 20.9 | 0.00 | 0.00 | 0.00 | 81 | 1014.1 |
| 20260507103201 | 17 | 0 | 11.3 | 22.5 | 0.00 | 0.00 | 0.00 | 81 | 1013.9 |
| 20260507101700 | 17 | 56 | 3.2 | 17.7 | 0.00 | 0.00 | 0.00 | 81 | 1014.0 |
| 20260507100201 | 18 | 341 | 9.7 | 22.5 | 0.00 | 0.00 | 0.00 | 82 | 1013.8 |
| 20260507094658 | 18 | 0 | 3.2 | 17.7 | 0.00 | 0.00 | 0.00 | 82 | 1013.2 |
| 20260507093200 | 18 | 72 | 6.4 | 25.7 | 0.00 | 0.00 | 0.00 | 82 | 1013.3 |
| 20260507091658 | 18 | 353 | 4.8 | 22.5 | 0.00 | 0.00 | 0.00 | 82 | 1013.1 |
| 20260507090159 | 18 | 1 | 8.0 | 22.5 | 0.00 | 0.00 | 0.00 | 82 | 1013.5 |
| 20260507084657 | 18 | 348 | 3.2 | 29.0 | 0.00 | 0.00 | 0.00 | 82 | 1013.6 |
| 20260507083158 | 18 | 0 | 11.3 | 25.7 | 0.00 | 0.00 | 0.00 | 81 | 1013.3 |
| 20260507081657 | 18 | 1 | 11.3 | 25.7 | 0.00 | 0.00 | 0.00 | 81 | 1013.4 |
| 20260507080158 | 18 | 336 | 9.7 | 22.5 | 0.00 | 0.00 | 0.00 | 81 | 1013.3 |
| 20260507074656 | 18 | 16 | 12.9 | 25.7 | 0.00 | 0.00 | 0.00 | 81 | 1013.5 |
| 20260507073158 | 19 | 345 | 4.8 | 22.5 | 0.00 | 0.00 | 0.00 | 80 | 1013.4 |
| 20260507071655 | 19 | 0 | 8.0 | 17.7 | 0.00 | 0.00 | 0.00 | 80 | 1013.7 |
| 20260507070157 | 19 | 353 | 8.0 | 25.7 | 0.00 | 0.00 | 0.00 | 79 | 1013.9 |
| 20260507064654 | 19 | 326 | 6.4 | 20.9 | 0.00 | 0.00 | 0.00 | 79 | 1013.8 |
| 20260507063156 | 19 | 309 | 8.0 | 20.9 | 0.00 | 0.00 | 0.00 | 79 | 1013.5 |
| 20260507061654 | 19 | 13 | 8.0 | 22.5 | 0.00 | 0.00 | 0.00 | 79 | 1013.6 |
| 20260507060155 | 19 | 337 | 9.7 | 35.4 | 0.00 | 0.00 | 0.00 | 78 | 1013.3 |
| 20260507054654 | 20 | 358 | 12.9 | 35.4 | 0.00 | 0.00 | 0.00 | 78 | 1013.3 |
| 20260507053733 | 20 | 0 | 9.7 | 20.9 | 0.00 | 0.00 | 0.00 | 77 | 1013.4 |
| 20260507053305 | 20 | 10 | 9.7 | 20.9 | 0.00 | 0.00 | 0.00 | 77 | 1013.4 |
| 20260507050902 | 20 | 0 | 9.7 | 22.5 | 0.00 | 0.00 | 0.00 | 77 | 1013.5 |
| 20260507044652 | 20 | 13 | 6.4 | 22.5 | 0.00 | 0.00 | 0.00 | 76 | 1013.4 |
| 20260507043153 | 20 | 23 | 11.3 | 22.5 | 0.00 | 0.00 | 0.00 | 76 | 1013.3 |
| 20260507041651 | 20 | 10 | 3.2 | 22.5 | 0.00 | 0.00 | 0.00 | 76 | 1013.2 |
| 20260507040850 | 21 | 45 | 6.4 | 22.5 | 0.00 | 0.00 | 0.00 | 76 | 1013.2 |
| 20260507035351 | 21 | 354 | 4.8 | 25.7 | 0.00 | 0.00 | 0.00 | 76 | 1013.1 |
| 20260507033849 | 21 | 8 | 11.3 | 29.0 | 0.00 | 0.00 | 0.00 | 76 | 1012.9 |
| 20260507032349 | 21 | 321 | 9.7 | 29.0 | 0.00 | 0.00 | 0.00 | 76 | 1012.6 |
| 20260507030149 | 21 | 309 | 8.0 | 20.9 | 0.00 | 0.00 | 0.00 | 76 | 1012.2 |
| 20260507024650 | 21 | 0 | 6.4 | 29.0 | 0.00 | 0.00 | 0.00 | 75 | 1011.9 |
| 20260507023151 | 22 | 13 | 4.8 | 25.7 | 0.00 | 0.00 | 0.00 | 76 | 1011.6 |
| 20260507022344 | 22 | 0 | 6.4 | 22.5 | 0.00 | 0.00 | 0.00 | 76 | 1011.3 |
| 20260507020857 | 23 | 0 | 14.5 | 25.7 | 0.00 | 0.00 | 0.00 | 77 | 1011.0 |
| 20260507014648 | 23 | 354 | 6.4 | 20.9 | 0.00 | 0.00 | 0.00 | 78 | 1010.7 |
| 20260507013150 | 23 | 345 | 8.0 | 29.0 | 0.00 | 0.00 | 0.00 | 77 | 1010.5 |
| 20260507011648 | 23 | 336 | 9.7 | 25.7 | 0.00 | 0.00 | 0.00 | 78 | 1010.2 |
| 20260507010149 | 23 | 345 | 4.8 | 22.5 | 0.00 | 0.00 | 0.00 | 78 | 1010.0 |